This is the latest recevied weather packets stored in our database for station/object N0HOT. If no packets are shown the sender has not sent any weather packets the latest 10 day(s).
| Time | Temp. | Humidity | Pressure | Rain* | Wind** | Luminosity | Snow |
|---|---|---|---|---|---|---|---|
| 1777735664 | 14.44° C | 27% | 1019.1 hPa | 0 mm | - | 752 W/m² | - |
| 1777735361 | 14.44° C | 30% | 1019.1 hPa | 0 mm | - | 688 W/m² | - |
| 1777735059 | 13.89° C | 32% | 1019.5 hPa | 0 mm | - | 689 W/m² | - |
| 1777734756 | 13.33° C | 31% | 1019.5 hPa | 0 mm | - | 668 W/m² | - |
| 1777734453 | 13.33° C | 32% | 1019.5 hPa | 0 mm | - | 641 W/m² | - |
| 1777734149 | 12.78° C | 34% | 1019.5 hPa | 0 mm | - | 623 W/m² | - |
| 1777733846 | 12.78° C | 34% | 1019.8 hPa | 0 mm | - | 596 W/m² | - |
| 1777733543 | 12.22° C | 34% | 1019.8 hPa | 0 mm | - | 188 W/m² | - |
| 1777733239 | 11.67° C | 36% | 1019.8 hPa | 0 mm | - | 203 W/m² | - |
| 1777732936 | 11.11° C | 39% | 1020.1 hPa | 0 mm | - | 542 W/m² | - |
| 1777732632 | 10.56° C | 38% | 1020.1 hPa | 0 mm | - | 297 W/m² | - |
| 1777732330 | 9.44° C | 40% | 1020.1 hPa | 0 mm | - | 456 W/m² | - |
| 1777732027 | 8.89° C | 43% | 1020.5 hPa | 0 mm | - | 463 W/m² | - |
| 1777731724 | 8.33° C | 45% | 1020.8 hPa | 0 mm | - | 256 W/m² | - |
| 1777731421 | 8.33° C | 46% | 1021.2 hPa | 0 mm | - | 209 W/m² | - |
| 1777731119 | 7.78° C | 48% | 1020.8 hPa | 0 mm | - | 174 W/m² | - |
| 1777730514 | 7.22° C | 53% | 1021.2 hPa | 0 mm | - | 216 W/m² | - |
| 1777730209 | 6.67° C | 55% | 1021.2 hPa | 0 mm | - | 90 W/m² | - |
| 1777729906 | 6.11° C | 55% | 1021.6 hPa | 0 mm | - | 95 W/m² | - |
| 1777729603 | 5.56° C | 55% | 1021.6 hPa | 0 mm | - | 60 W/m² | - |
| 1777729300 | 5° C | 55% | 1021.6 hPa | 0 mm | - | 137 W/m² | - |
| 1777728996 | 4.44° C | 55% | 1021.6 hPa | 0 mm | - | 193 W/m² | - |
| 1777728693 | 3.89° C | 58% | 1021.9 hPa | 0 mm | - | 210 W/m² | - |
| 1777728390 | 3.89° C | 60% | 1021.9 hPa | 0 mm | - | 152 W/m² | - |
| 1777728087 | 3.33° C | 62% | 1021.9 hPa | 0 mm | - | 216 W/m² | - |
* Rain latest hour (hover to see other rain measurements)
** Current wind speed in m/s (hover to see current wind gust speed)